TimeMST,TemperatureF,Dew PointF,Humidity,Sea Level PressureIn,VisibilityMPH,Wind Direction,Wind SpeedMPH,Gust SpeedMPH,PrecipitationIn,Events,Conditions,WindDirDegrees,DateUTC
12:35 AM,32.0,23.0,69,30.10,10.0,Calm,Calm,-,N/A,,Clear,0,2013-03-03 07:35:00
12:55 AM,32.0,23.0,69,30.10,10.0,Calm,Calm,-,N/A,,Clear,0,2013-03-03 07:55:00
1:15 AM,32.0,24.8,75,30.09,10.0,Calm,Calm,-,N/A,,Clear,0,2013-03-03 08:15:00
1:35 AM,32.0,23.0,69,30.09,10.0,South,4.6,-,N/A,,Clear,190,2013-03-03 08:35:00
1:55 AM,32.0,23.0,69,30.07,10.0,Calm,Calm,-,N/A,,Clear,0,2013-03-03 08:55:00
2:15 AM,30.2,23.0,75,30.06,10.0,Calm,Calm,-,N/A,,Clear,0,2013-03-03 09:15:00
2:35 AM,28.4,23.0,80,30.05,10.0,East,3.5,-,N/A,,Clear,90,2013-03-03 09:35:00
2:55 AM,30.2,24.8,80,30.04,10.0,East,4.6,-,N/A,,Clear,100,2013-03-03 09:55:00
3:15 AM,32.0,24.8,75,30.02,10.0,Calm,Calm,-,N/A,,Clear,0,2013-03-03 10:15:00
3:35 AM,30.2,23.0,75,30.02,10.0,Calm,Calm,-,N/A,,Clear,0,2013-03-03 10:35:00
3:55 AM,30.2,24.8,80,30.02,10.0,Calm,Calm,-,N/A,,Clear,0,2013-03-03 10:55:00
4:15 AM,28.4,24.8,86,30.01,10.0,ESE,4.6,-,N/A,,Clear,120,2013-03-03 11:15:00
4:35 AM,30.2,24.8,80,30.01,10.0,Calm,Calm,-,N/A,,Mostly Cloudy,0,2013-03-03 11:35:00
4:55 AM,32.0,26.6,80,30.02,10.0,Calm,Calm,-,N/A,,Overcast,0,2013-03-03 11:55:00
5:15 AM,32.0,26.6,80,30.01,10.0,Calm,Calm,-,N/A,,Overcast,0,2013-03-03 12:15:00
5:55 AM,33.8,26.6,75,30.01,10.0,Calm,Calm,-,N/A,,Overcast,0,2013-03-03 12:55:00
6:15 AM,33.8,26.6,75,30.01,10.0,Calm,Calm,-,N/A,,Overcast,0,2013-03-03 13:15:00
6:35 AM,32.0,28.4,87,30.01,10.0,North,3.5,-,N/A,,Overcast,10,2013-03-03 13:35:00
6:55 AM,32.0,28.4,87,30.01,10.0,Calm,Calm,-,N/A,,Overcast,0,2013-03-03 13:55:00
7:15 AM,32.0,28.4,87,30.01,10.0,Calm,Calm,-,N/A,,Overcast,0,2013-03-03 14:15:00
7:35 AM,32.0,28.4,87,30.01,10.0,SE,4.6,-,N/A,,Overcast,130,2013-03-03 14:35:00
7:55 AM,33.8,28.4,81,30.01,10.0,Calm,Calm,-,N/A,,Overcast,0,2013-03-03 14:55:00
8:15 AM,33.8,30.2,87,30.01,10.0,Calm,Calm,-,N/A,,Overcast,0,2013-03-03 15:15:00
8:35 AM,33.8,30.2,87,30.00,10.0,Calm,Calm,-,N/A,,Overcast,0,2013-03-03 15:35:00
8:55 AM,33.8,32.0,93,30.00,10.0,Calm,Calm,-,N/A,,Overcast,0,2013-03-03 15:55:00
9:15 AM,35.6,32.0,87,29.99,10.0,Calm,Calm,-,N/A,,Overcast,0,2013-03-03 16:15:00
9:35 AM,35.6,32.0,87,29.99,10.0,Calm,Calm,-,N/A,,Overcast,0,2013-03-03 16:35:00
9:55 AM,35.6,32.0,87,29.99,7.0,West,3.5,-,N/A,,Overcast,270,2013-03-03 16:55:00
10:15 AM,33.8,32.0,93,29.98,5.0,Calm,Calm,-,N/A,,Overcast,0,2013-03-03 17:15:00
10:35 AM,35.6,32.0,87,29.98,10.0,Calm,Calm,-,N/A,,Overcast,0,2013-03-03 17:35:00
10:55 AM,35.6,32.0,87,29.98,10.0,Calm,Calm,-,N/A,,Overcast,0,2013-03-03 17:55:00
11:15 AM,37.4,33.8,87,29.97,10.0,Calm,Calm,-,N/A,,Overcast,0,2013-03-03 18:15:00
11:35 AM,37.4,32.0,81,29.96,10.0,Calm,Calm,-,N/A,,Overcast,0,2013-03-03 18:35:00
11:55 AM,37.4,33.8,87,29.96,10.0,Calm,Calm,-,N/A,,Overcast,0,2013-03-03 18:55:00
12:15 PM,39.2,33.8,81,29.96,10.0,Calm,Calm,-,N/A,,Overcast,0,2013-03-03 19:15:00
12:35 PM,39.2,33.8,81,29.95,10.0,Calm,Calm,-,N/A,,Overcast,0,2013-03-03 19:35:00
12:55 PM,39.2,33.8,81,29.95,10.0,Calm,Calm,-,N/A,,Overcast,0,2013-03-03 19:55:00
1:35 PM,39.2,35.6,87,29.93,10.0,North,4.6,-,N/A,,Overcast,10,2013-03-03 20:35:00
1:55 PM,39.2,35.6,87,29.93,10.0,North,3.5,-,N/A,,Overcast,350,2013-03-03 20:55:00
2:35 PM,37.4,35.6,93,29.93,5.0,Calm,Calm,-,N/A,,Overcast,0,2013-03-03 21:35:00
3:15 PM,39.2,35.6,87,29.93,7.0,Calm,Calm,-,N/A,,Overcast,0,2013-03-03 22:15:00
3:35 PM,39.2,35.6,87,29.92,10.0,Calm,Calm,-,N/A,,Overcast,0,2013-03-03 22:35:00
3:55 PM,39.2,35.6,87,29.92,10.0,Calm,Calm,-,N/A,,Overcast,0,2013-03-03 22:55:00
4:15 PM,37.4,35.6,93,29.91,10.0,Calm,Calm,-,N/A,,Overcast,0,2013-03-03 23:15:00
4:35 PM,37.4,35.6,93,29.90,10.0,Calm,Calm,-,N/A,,Overcast,0,2013-03-03 23:35:00
4:55 PM,37.4,35.6,93,29.91,5.0,Calm,Calm,-,N/A,,Overcast,0,2013-03-03 23:55:00
5:15 PM,37.4,35.6,93,29.90,10.0,Calm,Calm,-,N/A,,Overcast,0,2013-03-04 00:15:00
5:35 PM,37.4,35.6,93,29.90,10.0,Calm,Calm,-,N/A,,Overcast,0,2013-03-04 00:35:00
5:55 PM,37.4,35.6,93,29.90,10.0,Calm,Calm,-,N/A,,Overcast,0,2013-03-04 00:55:00
6:15 PM,35.6,33.8,93,29.90,10.0,Calm,Calm,-,N/A,,Overcast,0,2013-03-04 01:15:00
6:35 PM,35.6,33.8,93,29.90,10.0,Calm,Calm,-,N/A,,Overcast,0,2013-03-04 01:35:00
6:55 PM,33.8,33.8,100,29.90,10.0,Calm,Calm,-,N/A,,Overcast,0,2013-03-04 01:55:00
7:15 PM,33.8,33.8,100,29.90,10.0,Calm,Calm,-,N/A,,Overcast,0,2013-03-04 02:15:00
7:35 PM,35.6,33.8,93,29.90,10.0,Calm,Calm,-,N/A,,Overcast,0,2013-03-04 02:35:00
7:55 PM,35.6,33.8,93,29.90,5.0,SE,4.6,-,N/A,,Overcast,130,2013-03-04 02:55:00
8:15 PM,35.6,33.8,93,29.90,7.0,SSE,3.5,-,N/A,,Overcast,150,2013-03-04 03:15:00
8:35 PM,33.8,33.8,100,29.91,10.0,NNE,3.5,-,N/A,,Overcast,30,2013-03-04 03:35:00
8:55 PM,35.6,33.8,93,29.91,10.0,Calm,Calm,-,N/A,Snow,Light Snow,0,2013-03-04 03:55:00
9:15 PM,35.6,33.8,93,29.91,10.0,Calm,Calm,-,N/A,,Overcast,0,2013-03-04 04:15:00
9:35 PM,35.6,33.8,93,29.91,10.0,Calm,Calm,-,N/A,,Overcast,0,2013-03-04 04:35:00
9:55 PM,33.8,33.8,100,29.91,7.0,Calm,Calm,-,N/A,,Overcast,0,2013-03-04 04:55:00
10:15 PM,35.6,33.8,93,29.91,10.0,Calm,Calm,-,N/A,,Overcast,0,2013-03-04 05:15:00
10:35 PM,33.8,33.8,100,29.91,10.0,Calm,Calm,-,N/A,,Overcast,0,2013-03-04 05:35:00
10:55 PM,33.8,33.8,100,29.90,10.0,Calm,Calm,-,N/A,Snow,Light Snow,0,2013-03-04 05:55:00
11:15 PM,33.8,32.0,93,29.90,10.0,Calm,Calm,-,N/A,,Overcast,0,2013-03-04 06:15:00
11:35 PM,33.8,33.8,100,29.90,10.0,Calm,Calm,-,N/A,,Overcast,0,2013-03-04 06:35:00
11:55 PM,33.8,32.0,93,29.89,10.0,Calm,Calm,-,N/A,,Overcast,0,2013-03-04 06:55:00